SCP
0 0 0 0 1 1 1 2 2 2 2 2 2 2 2 2 1 1 1 1 1 1 1 0 0 0 0 0 0 0 0 0 0 0 0 0 0 0 0 0 0 0 0
0 0 0 1 1 1 1 2 2 2 2 2 2 2 2 2 1 1 1 1 1 1 1 0 0 0 0 0 0 0 0 0 0 0 0 0 0 0 0 0 0 0 0
0 0 0 1 1 1 1 2 2 2 2 2 2 2 2 2 1 1 1 1 1 1 1 0 0 0 0 0 0 0 0 0 0 0 0 0 0 0 0 0 0 0 0
0 0 0 1 1 1 1 2 2 2 2 2 2 2 2 2 1 1 1 1 1 1 1 1 0 0 0 0 0 0 0 0 0 0 0 0 0 0 0 0 0 0 0
0 0 0 1 1 1 1 2 2 2 2 2 2 2 2 1 1 1 1 1 1 1 1 1 0 0 0 0 0 0 0 0 0 0 0 0 0 0 0 0 0 0 0
0 0 0 1 1 1 2 2 2 2 2 2 2 2 2 1 1 1 1 1 1 1 1 1 0 0 0 0 0 0 0 0 0 0 0 0 0 0 0 0 0 0 0
0 0 0 1 1 1 1 2 2 2 2 2 2 2 2 1 1 1 1 1 1 1 1 1 0 0 0 0 0 0 0 0 0 0 0 0 0 0 0 0 0 0 0
0 0 0 1 1 1 1 2 2 2 2 2 2 2 1 1 1 1 1 1 1 1 1 0 0 0 0 0 0 0 0 0 0 0 0 0 0 0 0 0 0 0 0
0 0 0 1 1 1 1 1 2 2 2 2 2 1 1 1 1 1 1 1 1 1 1 0 0 0 0 0 0 0 0 0 0 0 0 0 0 0 0 0 0 0 0
0 0 0 1 1 1 1 1 1 1 1 1 1 1 1 1 1 1 1 1 1 1 1 0 0 0 0 0 0 0 0 0 0 0 0 0 0 0 0 0 0 0 0
0 0 0 1 1 1 1 1 1 1 1 1 1 1 1 1 1 1 1 1 1 1 1 0 0 0 0 0 0 0 0 0 0 0 0 0 0 0 0 0 0 0 0
0 0 0 0 1 1 1 1 1 1 1 1 1 1 1 1 1 1 1 1 1 1 0 0 0 0 0 0 0 0 0 0 0 0 0 0 0 0 0 0 0 0 0
0 0 0 0 0 1 1 1 1 1 1 1 1 1 1 1 0 0 0 0 0 0 0 0 0 0 0 0 0 0 0 0 0 0 0 0 0 0 0 0 0 0 0
0 0 -8 -14 -8 0 1 1 1 1 1 1 1 1 0 0 0 0 0 0 0 0 0 0 0 0 0 0 0 0 0 0 0 0 0 0 0 0 0 0 0 0 0
0 0 -14 -28 -14 0 0 1 1 1 1 1 1 1 0 0 0 0 0 0 0 0 0 0 0 0 0 0 0 0 0 0 0 0 0 0 0 0 0 0 0 0 0
0 0 -8 -14 -8 0 0 0 1 1 1 0 0 0 0 0 0 0 0 0 0 0 0 0 0 0 0 0 0 0 0 0 0 0 0 0 0 0 0 0 0 0 0
0 0 0 0 0 0 0 0 0 1 0 0 0 0 0 0 0 0 0 0 0 0 0 0 0 0 0 0 0 0 0 0 0 0 0 0 0 0 0 0 0 0 0
0 0 0 0 0 0 0 0 0 0 0 0 0 0 0 0 0 0 0 0 0 0 0 0 0 0 0 0 0 0 0 0 0 0 0 0 0 0 0 0 0 0 0
0 0 0 0 0 0 0 0 0 0 0 0 0 0 0 0 0 0 0 0 0 0 0 0 0 0 0 0 0 0 0 0 0 0 0 0 0 0 0 0 0 0 0
0 0 0 0 0 0 0 0 0 0 0 0 0 0 0 0 0 0 0 0 0 0 0 0 0 0 0 0 0 0 0 0 0 0 0 0 0 0 0 0 0 0 0
0 0 0 0 0 0 0 0 0 0 0 0 0 0 0 0 0 0 0 0 0 0 0 0 0 0 0 0 0 0 0 0 0 0 0 0 0 0 0 0 0 0 0
0 0 0 0 0 0 0 0 0 0 0 0 0 0 0 0 0 0 0 0 0 0 0 0 0 0 0 0 0 0 0 0 0 0 0 0 0 0 0 0 0 0 0
0 0 0 0 0 0 0 0 0 0 0 0 0 0 0 0 0 0 0 0 0 0 0 0 0 0 0 0 0 0 0 0 0 0 0 0 0 0 0 0 0 0 0
0 0 0 0 0 0 0 0 0 0 0 0 0 0 0 0 0 0 0 0 0 0 0 0 0 0 0 0 0 0 0 0 0 0 0 0 0 0 0 0 0 0 0
0 0 0 0 0 0 0 0 0 0 0 0 0 0 0 0 0 0 0 0 0 0 0 0 0 0 0 0 0 0 0 0 0 0 0 0 0 0 0 0 0 0 0
0 0 0 0 0 0 0 0 0 0 0 0 0 0 0 0 0 0 0 0 0 0 0 0 0 0 0 0 0 0 0 0 0 0 0 0 0 0 0 0 0 0 0
Wind_Speed
3 7 14 15 16 16 17 18 18 17 17 17 17 18 18 19 19 19 19 19 18 17 17 17 17 17 17 17 17 16 16 16 15 15 14 14 14 15 16 15 14 10 16
5 9 13 14 15 16 16 17 17 16 16 17 17 18 18 18 19 19 19 19 18 18 18 17 17 17 17 17 17 16 16 16 15 14 13 12 14 15 16 15 14 10 15
5 7 10 13 14 15 15 15 15 16 16 17 17 18 18 18 19 19 19 19 18 18 18 17 17 17 17 17 16 16 16 16 15 14 12 6 9 15 15 15 15 15 15
5 5 6 10 12 13 14 15 15 16 16 17 17 18 18 18 19 19 19 18 18 17 17 17 17 17 17 16 16 16 16 16 15 13 6 4 6 14 15 14 14 15 15
4 4 4 8 11 12 13 14 15 16 16 17 17 18 18 19 19 19 19 18 18 18 17 17 17 17 16 16 16 15 16 16 14 10 5 4 5 13 14 14 14 14 15
3 2 4 6 9 11 12 13 14 15 16 16 17 17 18 19 19 19 18 18 18 18 18 17 17 17 16 16 16 15 15 15 11 6 5 4 4 12 14 14 13 14 15
1 2 3 5 6 9 11 12 13 14 15 16 16 17 18 19 18 18 18 18 18 19 18 18 17 17 16 16 15 16 15 15 8 5 5 4 6 13 14 14 14 14 14
1 3 4 5 6 7 9 11 12 12 14 15 16 17 18 18 19 19 19 19 19 19 18 18 17 17 16 16 15 15 15 13 10 7 5 4 10 13 14 14 14 14 14
0 1 3 5 5 6 7 8 10 11 12 13 15 16 16 17 19 20 20 20 19 19 19 18 17 17 16 16 15 14 14 13 7 5 5 3 10 13 14 14 14 13 13
2 1 2 3 4 4 5 7 8 10 11 12 13 13 14 16 17 18 18 19 20 19 19 18 17 17 16 15 15 14 14 11 6 5 3 5 12 13 14 13 13 12 12
4 3 2 3 3 3 4 5 6 8 10 10 10 11 11 8 10 12 14 18 20 20 19 19 18 17 14 13 14 13 10 4 5 4 3 9 13 13 13 13 12 11 11
6 5 3 3 3 3 4 3 4 5 6 6 6 7 6 6 7 9 14 17 19 19 19 19 18 15 10 5 8 10 4 6 5 3 4 11 13 13 13 12 12 11 11
7 6 4 3 3 3 3 3 2 2 3 5 7 7 6 5 5 6 6 9 11 13 10 12 10 6 5 4 4 5 5 5 3 3 4 11 12 13 13 12 11 10 10
7 7 5 4 4 4 4 3 3 3 3 4 6 8 6 5 5 6 6 7 7 6 7 7 6 6 6 6 6 6 6 4 4 3 4 10 11 12 13 12 11 10 9
8 8 6 5 4 5 4 4 4 4 4 5 6 7 8 6 7 7 6 7 7 7 8 8 7 8 7 7 6 7 7 6 5 4 4 9 10 11 12 12 11 10 9
8 8 6 6 5 5 5 5 5 5 5 5 6 8 9 7 7 8 8 8 8 8 8 8 9 8 7 6 7 7 7 6 6 5 4 6 9 10 11 11 10 9 9
9 8 6 6 5 5 6 6 5 5 5 6 6 9 10 9 9 8 8 8 9 9 9 7 8 7 7 6 7 7 6 6 6 6 5 3 4 7 9 10 9 9 8
8 7 7 6 5 5 6 6 5 6 6 6 6 8 10 10 10 9 8 8 10 9 8 8 8 7 7 7 6 6 5 6 7 6 5 4 3 3 5 8 9 9 8
6 6 7 6 6 6 6 6 6 6 6 6 6 7 9 11 11 9 9 8 10 9 9 9 8 7 8 7 6 5 5 5 6 6 6 5 4 4 3 5 7 8 8
5 5 5 5 5 5 5 5 5 6 6 6 6 8 10 10 11 9 9 10 10 10 9 9 9 8 8 8 7 5 4 4 4 5 6 5 4 5 4 4 3 4 6
4 5 5 5 5 4 3 4 5 6 6 6 7 10 11 11 11 10 9 11 10 10 12 12 9 10 8 7 6 4 2 1 3 4 4 4 5 5 5 5 3 2 2
5 6 6 5 5 6 5 5 5 6 6 7 7 9 11 12 12 10 11 11 11 10 13 13 11 8 6 8 8 7 4 1 1 2 3 5 5 4 5 5 4 4 3
5 6 6 6 6 7 6 4 4 4 4 5 7 8 10 12 12 12 12 11 12 12 12 14 13 10 10 8 8 7 7 6 3 2 3 4 5 4 4 4 5 5 5
7 7 6 6 6 6 5 5 7 6 7 7 6 6 9 11 12 12 12 13 13 11 12 14 12 10 12 11 7 3 3 6 6 3 2 3 5 5 5 5 5 5 5
7 7 6 6 5 5 5 6 8 7 6 5 5 7 8 9 11 12 12 13 13 12 13 14 12 13 10 11 9 5 4 3 3 5 5 4 2 3 4 5 4 4 4
7 6 6 6 6 5 6 6 8 8 6 6 7 7 8 7 8 12 13 13 13 12 14 14 13 14 11 10 8 6 6 6 5 4 5 5 4 3 3 3 4 4 4
Wind_Direction
207 183 183 173 169 165 161 158 156 154 152 149 146 143 141 139 138 137 137 136 135 134 132 128 126 123 122 120 118 115 112 110 107 104 104 106 106 104 99 92 88 81 86
166 173 179 173 171 169 166 163 160 158 156 154 151 149 147 145 143 142 141 140 139 137 134 131 129 127 124 122 121 118 115 112 109 107 105 106 108 106 103 100 96 92 89
134 165 174 174 174 172 168 165 163 162 160 159 156 154 153 151 149 147 145 143 142 140 136 134 132 129 127 125 124 122 119 116 112 109 102 91 104 107 104 100 97 93 93
130 152 172 179 177 174 171 168 166 165 165 164 161 159 158 156 154 151 149 146 145 142 139 137 134 132 130 129 127 125 123 120 117 111 95 90 103 108 105 101 98 96 94
131 149 166 179 182 179 175 172 171 169 169 168 167 164 163 161 158 156 152 150 146 143 141 139 137 135 134 132 130 127 126 124 118 108 96 91 97 108 106 104 101 98 96
126 149 177 173 185 183 180 178 176 174 173 172 172 170 169 166 163 159 155 151 147 145 143 141 140 139 138 136 132 129 128 125 114 104 102 98 100 111 110 109 106 103 98
143 160 180 187 185 190 185 182 183 181 178 176 176 176 174 171 166 161 157 153 150 149 147 146 145 143 141 138 135 132 128 126 118 110 106 105 114 117 115 112 109 106 101
170 186 183 190 197 195 192 188 186 188 186 183 181 179 178 174 169 164 160 157 154 152 151 150 149 147 145 142 138 133 129 127 124 120 115 117 125 122 118 114 109 106 103
332 203 200 195 193 201 199 196 193 193 191 189 186 181 179 177 172 169 165 160 157 155 154 153 152 152 149 145 139 134 129 125 126 127 125 127 131 128 122 117 112 109 107
322 309 254 218 202 197 195 203 201 200 198 194 190 184 181 179 175 171 168 163 160 157 157 156 156 155 152 148 140 135 128 124 124 123 124 138 136 132 126 121 117 114 111
319 304 286 248 225 210 208 207 201 201 199 194 189 182 180 180 175 172 171 165 163 160 160 159 158 156 151 147 141 133 125 126 129 128 135 141 139 135 130 126 122 119 117
299 291 277 269 240 229 228 210 205 207 193 194 189 180 181 179 174 172 169 167 165 162 162 161 159 154 145 138 138 130 124 131 130 137 151 147 143 139 134 132 129 125 121
271 274 264 262 252 235 225 220 212 203 200 193 187 181 176 176 170 170 168 166 165 162 162 161 155 149 145 144 138 136 137 136 138 144 152 149 148 146 140 137 134 129 124
269 270 257 247 253 244 226 219 215 202 204 199 188 181 174 173 173 172 173 168 166 164 161 156 155 155 153 151 147 144 142 141 144 144 154 152 152 149 146 143 139 135 130
257 258 255 242 245 246 233 221 217 205 205 205 191 184 179 176 178 175 177 173 169 164 164 161 160 161 158 155 153 150 148 147 148 145 151 152 152 152 150 148 145 141 138
260 256 252 246 239 246 243 227 215 207 205 202 197 189 184 178 179 177 179 177 172 171 169 167 165 164 161 157 156 154 151 151 149 147 146 153 155 158 157 155 154 150 147
265 253 249 251 235 238 249 231 222 208 203 204 199 191 187 179 179 178 179 181 174 170 168 166 164 158 156 155 156 155 152 154 154 152 149 146 154 160 163 165 164 164 160
273 258 250 258 247 240 249 244 226 216 208 206 203 193 188 181 178 178 177 185 175 168 164 166 165 160 157 157 157 159 154 154 155 157 153 152 152 154 168 171 173 173 172
278 267 254 246 237 238 244 248 233 221 214 207 203 196 189 184 180 182 179 179 176 169 167 169 167 161 160 159 156 152 153 158 160 160 161 165 164 160 163 175 176 178 181
282 277 262 252 237 234 242 248 239 225 217 206 202 200 190 185 183 183 181 176 177 172 170 168 165 162 159 157 149 138 145 155 160 166 171 171 171 172 171 169 171 183 188
293 288 275 257 245 232 232 239 228 225 219 211 207 201 192 185 182 184 184 178 178 179 174 167 161 160 157 149 129 114 71 105 164 175 174 173 181 182 178 177 176 176 188
296 293 284 263 252 240 230 236 226 227 221 212 206 201 194 187 184 185 186 183 178 177 176 171 161 157 163 159 148 139 130 130 241 194 184 184 187 181 186 186 180 181 180
291 288 285 274 262 249 236 235 240 238 222 215 208 199 194 190 188 186 189 183 181 179 180 176 171 161 165 169 162 152 155 180 177 217 206 194 186 184 191 187 189 189 185
284 281 277 270 267 256 238 231 221 228 232 221 207 204 196 191 190 187 190 185 181 180 179 180 176 167 166 170 170 163 154 148 150 164 215 206 195 194 195 193 191 192 185
293 283 275 277 274 266 243 232 223 226 233 223 208 205 200 195 193 190 190 186 182 180 179 181 177 171 173 174 169 158 144 131 130 145 173 190 201 211 199 194 189 188 187
308 308 297 293 284 264 244 230 223 218 218 220 213 206 201 195 194 193 191 187 184 180 180 180 178 175 176 174 169 164 161 158 163 151 158 172 188 212 193 190 188 188 186